Japanese version Home page |
Updated on May 2, 2002 |
Profile
|
Orbital ElementsEpoch 2002 Jan. 6.0 TT = JDT 2452280.5 T 2002 Jan. 8.09246 TT MPC q 1.6979513 (2000.0) P Q z +0.0016694 Peri. 202.20158 -0.77999321 +0.50781142 +/-0.0000422 Node 336.07110 +0.61712242 +0.52726541 e 0.9971655 Incl. 115.62726 -0.10378106 -0.68126262
|
Finding Charts
|
Magnitudes Graphm1 = 11.2 + 5 log d + 10.0 log r
|
The orbital elements are calculated by Dr. Brian G. Marsden and printed on
M.P.E.C. 2002-F19.
|